Location: Poughquag
(41.6090°N, 73.6820°W)
Time: 03:30:40
(UTC-04:00)

Transit 4A - Pass Details

Date: 07 June 2020
Orbit: 866 x 978 km, 66.8° (Epoch: 06 July)

Event Time Altitude Azimuth Distance (km) Brightness Sun altitude
Rises 02:36:51 0° 260° (W) 3,454 - -21.3°
Exits shadow 02:39:13 - 273° (W) 2,768 10.2 -21.1°
Reaches altitude 10° 02:40:12 10° 280° (W) 2,530 10.0 -21.0°
Maximum altitude 02:44:02 18° 321° (NW) 2,058 10.0 -20.7°
Drops below altitude 10° 02:47:55 10° 2° (N) 2,577 11.1 -20.4°
Sets 02:51:23 0° 22° (NNE) 3,543 12.5 -20.1°
